QPF
0.01 0.01 0.00 0.01 0.01 0.01 0.01 0.00 0.01 0.01 0.01 0.02 0.01 0.01 0.01 0.02 0.02 0.01 0.01 0.01 0.01 0.01 0.02 0.02 0.02 0.03 0.03 0.04 0.05 0.06 0.04 0.03 0.03 0.04 0.03 0.03 0.03 0.03 0.04 0.04 0.05 0.05 0.04 0.04
0.00 0.00 0.00 0.01 0.01 0.01 0.00 0.00 0.00 0.01 0.01 0.02 0.01 0.01 0.01 0.02 0.02 0.02 0.02 0.01 0.01 0.01 0.01 0.01 0.02 0.03 0.03 0.03 0.04 0.04 0.04 0.03 0.03 0.03 0.03 0.03 0.03 0.03 0.03 0.03 0.04 0.04 0.04 0.04
0.00 0.00 0.00 0.01 0.01 0.01 0.01 0.01 0.01 0.01 0.02 0.01 0.01 0.01 0.01 0.02 0.02 0.02 0.02 0.01 0.01 0.01 0.01 0.01 0.01 0.02 0.03 0.03 0.03 0.03 0.03 0.04 0.04 0.04 0.04 0.05 0.06 0.06 0.06 0.06 0.06 0.05 0.06 0.06
0.00 0.00 0.01 0.02 0.01 0.00 0.00 0.01 0.00 0.01 0.01 0.01 0.01 0.01 0.01 0.01 0.01 0.01 0.01 0.01 0.01 0.01 0.01 0.01 0.02 0.02 0.02 0.03 0.02 0.02 0.03 0.04 0.05 0.05 0.05 0.06 0.06 0.07 0.08 0.08 0.07 0.07 0.07 0.07
0.00 0.00 0.01 0.01 0.00 0.00 0.00 0.01 0.00 0.00 0.00 0.00 0.00 0.00 0.00 0.00 0.00 0.00 0.00 0.01 0.01 0.01 0.01 0.01 0.01 0.01 0.02 0.02 0.02 0.01 0.02 0.03 0.03 0.03 0.04 0.05 0.06 0.07 0.08 0.07 0.07 0.07 0.06 0.06
0.00 0.00 0.01 0.01 0.00 0.00 0.00 0.00 0.00 0.00 0.00 0.00 0.00 0.00 0.00 0.00 0.00 0.00 0.00 0.00 0.00 0.01 0.01 0.01 0.01 0.01 0.01 0.01 0.01 0.01 0.01 0.01 0.01 0.01 0.01 0.02 0.02 0.03 0.04 0.04 0.04 0.04 0.04 0.04
0.00 0.00 0.00 0.00 0.00 0.00 0.00 0.00 0.00 0.00 0.00 0.00 0.00 0.00 0.00 0.00 0.00 0.00 0.00 0.00 0.00 0.00 0.00 0.00 0.00 0.01 0.01 0.01 0.01 0.01 0.00 0.00 0.00 0.00 0.00 0.00 0.00 0.01 0.01 0.01 0.01 0.01 0.01 0.01
0.00 0.00 0.00 0.00 0.00 0.00 0.00 0.00 0.00 0.00 0.00 0.00 0.00 0.00 0.00 0.00 0.00 0.00 0.00 0.00 0.00 0.00 0.00 0.00 0.00 0.00 0.00 0.00 0.00 0.00 0.00 0.00 0.00 0.00 0.00 0.00 0.00 0.00 0.00 0.00 0.00 0.00 0.00 0.00
0.00 0.00 0.00 0.00 0.00 0.00 0.00 0.00 0.00 0.00 0.00 0.00 0.00 0.00 0.00 0.00 0.00 0.00 0.00 0.00 0.00 0.00 0.00 0.00 0.00 0.00 0.00 0.00 0.00 0.00 0.00 0.00 0.00 0.00 0.00 0.00 0.00 0.00 0.00 0.00 0.00 0.00 0.00 0.00
0.00 0.00 0.00 0.00 0.00 0.00 0.00 0.00 0.00 0.00 0.00 0.00 0.00 0.00 0.00 0.00 0.00 0.00 0.00 0.00 0.00 0.00 0.00 0.00 0.00 0.00 0.00 0.00 0.00 0.00 0.00 0.00 0.00 0.00 0.00 0.00 0.00 0.00 0.00 0.00 0.00 0.00 0.00 0.00
0.00 0.00 0.00 0.00 0.00 0.00 0.00 0.00 0.00 0.00 0.00 0.00 0.00 0.00 0.00 0.00 0.00 0.00 0.00 0.00 0.00 0.00 0.00 0.00 0.00 0.00 0.00 0.00 0.00 0.00 0.00 0.00 0.00 0.00 0.00 0.00 0.00 0.00 0.00 0.00 0.00 0.00 0.00 0.00
0.00 0.00 0.00 0.00 0.00 0.00 0.00 0.00 0.00 0.00 0.00 0.00 0.00 0.00 0.00 0.00 0.00 0.00 0.00 0.00 0.00 0.00 0.00 0.00 0.00 0.00 0.00 0.00 0.00 0.00 0.00 0.00 0.00 0.00 0.00 0.00 0.00 0.00 0.00 0.00 0.00 0.00 0.00 0.00
0.00 0.00 0.00 0.00 0.00 0.00 0.00 0.00 0.00 0.00 0.00 0.00 0.00 0.00 0.00 0.00 0.00 0.00 0.00 0.00 0.00 0.00 0.00 0.00 0.00 0.00 0.00 0.00 0.00 0.00 0.00 0.00 0.00 0.00 0.00 0.00 0.00 0.00 0.00 0.00 0.00 0.00 0.00 0.00
0.00 0.00 0.00 0.00 0.00 0.00 0.00 0.00 0.00 0.00 0.00 0.00 0.00 0.00 0.00 0.00 0.00 0.00 0.00 0.00 0.00 0.00 0.00 0.00 0.00 0.00 0.00 0.00 0.00 0.00 0.00 0.00 0.00 0.00 0.00 0.00 0.00 0.00 0.00 0.00 0.00 0.00 0.00 0.00
0.00 0.00 0.00 0.00 0.00 0.00 0.00 0.00 0.00 0.00 0.00 0.00 0.00 0.00 0.00 0.00 0.00 0.00 0.00 0.00 0.00 0.00 0.00 0.00 0.00 0.00 0.00 0.00 0.00 0.00 0.00 0.00 0.00 0.00 0.00 0.00 0.00 0.00 0.00 0.00 0.00 0.00 0.00 0.00
0.00 0.00 0.00 0.00 0.00 0.00 0.00 0.00 0.00 0.00 0.00 0.00 0.00 0.00 0.00 0.00 0.00 0.00 0.00 0.00 0.00 0.00 0.00 0.00 0.00 0.00 0.00 0.00 0.00 0.00 0.00 0.00 0.00 0.00 0.00 0.00 0.00 0.00 0.00 0.00 0.00 0.00 0.00 0.00
0.00 0.00 0.00 0.00 0.00 0.00 0.00 0.00 0.00 0.00 0.00 0.00 0.00 0.00 0.00 0.00 0.00 0.00 0.00 0.00 0.00 0.00 0.00 0.00 0.00 0.00 0.00 0.00 0.00 0.00 0.00 0.00 0.00 0.00 0.00 0.00 0.00 0.00 0.00 0.00 0.00 0.00 0.00 0.00
0.00 0.00 0.00 0.00 0.00 0.00 0.00 0.00 0.00 0.00 0.00 0.00 0.00 0.00 0.00 0.00 0.00 0.00 0.00 0.00 0.00 0.00 0.00 0.00 0.00 0.00 0.00 0.00 0.00 0.00 0.00 0.00 0.00 0.00 0.00 0.00 0.00 0.00 0.00 0.00 0.00 0.00 0.00 0.00
0.00 0.00 0.00 0.00 0.00 0.00 0.00 0.00 0.00 0.00 0.00 0.00 0.00 0.00 0.00 0.00 0.00 0.00 0.00 0.00 0.00 0.00 0.00 0.00 0.00 0.00 0.00 0.00 0.00 0.00 0.00 0.00 0.00 0.00 0.00 0.00 0.00 0.00 0.00 0.00 0.00 0.00 0.00 0.00
0.00 0.00 0.00 0.00 0.00 0.00 0.00 0.00 0.00 0.00 0.00 0.00 0.00 0.00 0.00 0.00 0.00 0.00 0.00 0.00 0.00 0.00 0.00 0.00 0.00 0.00 0.00 0.00 0.00 0.00 0.00 0.00 0.00 0.00 0.00 0.00 0.00 0.00 0.00 0.00 0.00 0.00 0.00 0.00
0.00 0.00 0.00 0.00 0.00 0.00 0.00 0.00 0.00 0.00 0.00 0.00 0.00 0.00 0.00 0.00 0.00 0.00 0.00 0.00 0.00 0.00 0.00 0.01 0.01 0.00 0.00 0.00 0.00 0.00 0.00 0.00 0.00 0.00 0.00 0.00 0.00 0.00 0.00 0.00 0.00 0.00 0.00 0.00
0.00 0.00 0.00 0.00 0.00 0.00 0.00 0.00 0.00 0.00 0.00 0.00 0.00 0.00 0.00 0.00 0.00 0.00 0.00 0.00 0.00 0.00 0.01 0.01 0.01 0.00 0.00 0.00 0.00 0.00 0.00 0.00 0.00 0.00 0.00 0.00 0.00 0.00 0.00 0.00 0.00 0.00 0.00 0.00
0.00 0.00 0.00 0.00 0.00 0.00 0.00 0.00 0.00 0.00 0.00 0.00 0.00 0.00 0.00 0.00 0.00 0.00 0.00 0.00 0.00 0.00 0.01 0.00 0.00 0.00 0.00 0.00 0.00 0.00 0.00 0.00 0.00 0.00 0.00 0.00 0.00 0.00 0.00 0.00 0.00 0.00 0.00 0.00
0.00 0.00 0.00 0.00 0.00 0.00 0.00 0.00 0.00 0.00 0.00 0.00 0.00 0.00 0.00 0.00 0.00 0.00 0.00 0.00 0.00 0.00 0.01 0.01 0.01 0.01 0.01 0.01 0.01 0.01 0.00 0.00 0.00 0.00 0.00 0.00 0.00 0.00 0.00 0.00 0.00 0.00 0.00 0.00
0.00 0.00 0.00 0.00 0.00 0.00 0.00 0.00 0.00 0.00 0.00 0.00 0.00 0.00 0.00 0.00 0.00 0.00 0.00 0.00 0.01 0.01 0.01 0.01 0.01 0.01 0.00 0.00 0.00 0.00 0.00 0.00 0.00 0.00 0.00 0.00 0.00 0.00 0.00 0.00 0.00 0.00 0.00 0.00
0.00 0.00 0.00 0.00 0.00 0.00 0.00 0.00 0.00 0.00 0.00 0.00 0.00 0.00 0.00 0.00 0.00 0.00 0.01 0.01 0.01 0.01 0.00 0.00 0.00 0.00 0.00 0.00 0.00 0.00 0.00 0.00 0.00 0.00 0.00 0.00 0.00 0.00 0.00 0.00 0.00 0.00 0.00 0.00
0.00 0.00 0.00 0.00 0.00 0.00 0.00 0.00 0.00 0.00 0.00 0.00 0.00 0.00 0.00 0.00 0.00 0.00 0.00 0.00 0.00 0.00 0.00 0.00 0.00 0.00 0.00 0.00 0.00 0.00 0.00 0.00 0.00 0.00 0.00 0.00 0.00 0.00 0.00 0.00 0.00 0.00 0.00 0.00
MSLP
1015.99 1015.83 1015.65 1015.46 1015.26 1015.05 1014.82 1014.57 1014.31 1014.04 1013.78 1013.54 1013.37 1013.28 1013.30 1013.44 1013.71 1014.09 1014.57 1015.11 1015.67 1016.23 1016.74 1017.19 1017.56 1017.85 1018.05 1018.18 1018.24 1018.24 1018.19 1018.10 1017.96 1017.79 1017.57 1017.33 1017.06 1016.78 1016.50 1016.24 1016.00 1015.80 1015.63 1015.49
1015.91 1015.63 1015.31 1014.97 1014.62 1014.28 1013.94 1013.62 1013.33 1013.07 1012.85 1012.68 1012.58 1012.57 1012.66 1012.86 1013.18 1013.59 1014.09 1014.66 1015.25 1015.84 1016.40 1016.91 1017.33 1017.68 1017.94 1018.11 1018.21 1018.24 1018.22 1018.14 1018.03 1017.89 1017.71 1017.52 1017.31 1017.09 1016.88 1016.67 1016.48 1016.30 1016.14 1015.99
1015.86 1015.47 1015.03 1014.56 1014.07 1013.61 1013.18 1012.80 1012.47 1012.21 1012.02 1011.91 1011.87 1011.93 1012.09 1012.34 1012.69 1013.14 1013.66 1014.25 1014.87 1015.50 1016.11 1016.66 1017.16 1017.56 1017.88 1018.10 1018.24 1018.29 1018.29 1018.23 1018.13 1018.01 1017.86 1017.70 1017.54 1017.37 1017.20 1017.03 1016.86 1016.69 1016.52 1016.35
1015.77 1015.31 1014.78 1014.21 1013.63 1013.08 1012.59 1012.16 1011.82 1011.57 1011.41 1011.33 1011.34 1011.45 1011.64 1011.92 1012.29 1012.75 1013.29 1013.89 1014.53 1015.19 1015.84 1016.46 1017.01 1017.48 1017.86 1018.13 1018.31 1018.40 1018.41 1018.37 1018.28 1018.17 1018.05 1017.91 1017.78 1017.64 1017.50 1017.36 1017.20 1017.03 1016.84 1016.64
1015.59 1015.09 1014.51 1013.89 1013.28 1012.70 1012.18 1011.75 1011.42 1011.19 1011.05 1011.00 1011.04 1011.17 1011.37 1011.65 1012.01 1012.45 1012.98 1013.57 1014.22 1014.90 1015.59 1016.25 1016.86 1017.40 1017.84 1018.17 1018.39 1018.52 1018.56 1018.53 1018.46 1018.36 1018.25 1018.13 1018.02 1017.91 1017.79 1017.66 1017.50 1017.33 1017.13 1016.89
1015.28 1014.76 1014.18 1013.57 1012.98 1012.43 1011.95 1011.56 1011.27 1011.08 1010.97 1010.94 1010.99 1011.10 1011.27 1011.52 1011.84 1012.24 1012.73 1013.29 1013.93 1014.61 1015.32 1016.03 1016.69 1017.28 1017.78 1018.17 1018.44 1018.60 1018.67 1018.67 1018.61 1018.53 1018.43 1018.33 1018.23 1018.13 1018.03 1017.91 1017.77 1017.59 1017.38 1017.14
1014.82 1014.31 1013.76 1013.22 1012.70 1012.23 1011.85 1011.54 1011.32 1011.18 1011.11 1011.10 1011.13 1011.21 1011.34 1011.52 1011.77 1012.10 1012.53 1013.04 1013.65 1014.32 1015.04 1015.76 1016.46 1017.10 1017.65 1018.09 1018.40 1018.61 1018.71 1018.73 1018.69 1018.62 1018.53 1018.44 1018.35 1018.27 1018.18 1018.08 1017.95 1017.79 1017.60 1017.37
1014.21 1013.73 1013.26 1012.81 1012.41 1012.07 1011.81 1011.62 1011.50 1011.43 1011.40 1011.39 1011.41 1011.44 1011.50 1011.60 1011.77 1012.02 1012.37 1012.82 1013.38 1014.02 1014.73 1015.46 1016.18 1016.85 1017.44 1017.91 1018.27 1018.51 1018.64 1018.68 1018.66 1018.60 1018.53 1018.45 1018.37 1018.30 1018.22 1018.14 1018.03 1017.89 1017.73 1017.52
1013.52 1013.08 1012.68 1012.35 1012.09 1011.91 1011.80 1011.74 1011.72 1011.73 1011.73 1011.73 1011.71 1011.69 1011.68 1011.70 1011.78 1011.95 1012.22 1012.61 1013.12 1013.73 1014.42 1015.15 1015.87 1016.56 1017.16 1017.66 1018.05 1018.31 1018.47 1018.53 1018.53 1018.48 1018.42 1018.34 1018.28 1018.21 1018.15 1018.08 1017.99 1017.88 1017.74 1017.57
1012.79 1012.39 1012.09 1011.88 1011.77 1011.75 1011.78 1011.85 1011.93 1011.99 1012.02 1012.02 1011.97 1011.90 1011.82 1011.77 1011.78 1011.88 1012.09 1012.42 1012.89 1013.47 1014.14 1014.85 1015.57 1016.25 1016.87 1017.38 1017.78 1018.06 1018.24 1018.32 1018.33 1018.30 1018.24 1018.17 1018.11 1018.05 1017.99 1017.93 1017.85 1017.76 1017.64 1017.50
1012.09 1011.74 1011.53 1011.45 1011.48 1011.59 1011.75 1011.92 1012.07 1012.18 1012.23 1012.21 1012.13 1012.01 1011.88 1011.77 1011.73 1011.78 1011.95 1012.26 1012.70 1013.26 1013.91 1014.60 1015.31 1015.98 1016.60 1017.11 1017.51 1017.80 1017.99 1018.09 1018.12 1018.10 1018.05 1017.99 1017.93 1017.86 1017.79 1017.73 1017.65 1017.55 1017.45 1017.32
1011.47 1011.18 1011.07 1011.10 1011.25 1011.47 1011.73 1011.97 1012.17 1012.29 1012.33 1012.28 1012.17 1012.01 1011.84 1011.70 1011.64 1011.67 1011.84 1012.14 1012.57 1013.12 1013.75 1014.43 1015.12 1015.78 1016.37 1016.88 1017.28 1017.58 1017.78 1017.89 1017.94 1017.94 1017.90 1017.85 1017.78 1017.70 1017.62 1017.53 1017.43 1017.32 1017.20 1017.06
1010.98 1010.77 1010.75 1010.89 1011.14 1011.45 1011.76 1012.03 1012.24 1012.35 1012.36 1012.27 1012.12 1011.93 1011.74 1011.59 1011.53 1011.57 1011.75 1012.06 1012.50 1013.05 1013.67 1014.33 1015.00 1015.63 1016.21 1016.69 1017.09 1017.39 1017.60 1017.74 1017.81 1017.83 1017.81 1017.76 1017.69 1017.61 1017.50 1017.39 1017.25 1017.10 1016.95 1016.78
1010.62 1010.52 1010.61 1010.84 1011.17 1011.53 1011.87 1012.15 1012.33 1012.40 1012.36 1012.23 1012.04 1011.82 1011.62 1011.48 1011.43 1011.50 1011.71 1012.04 1012.50 1013.05 1013.66 1014.30 1014.93 1015.53 1016.08 1016.55 1016.93 1017.23 1017.46 1017.61 1017.71 1017.76 1017.77 1017.74 1017.67 1017.58 1017.45 1017.30 1017.13 1016.94 1016.74 1016.53
1010.39 1010.42 1010.63 1010.96 1011.35 1011.75 1012.09 1012.34 1012.48 1012.50 1012.40 1012.21 1011.98 1011.74 1011.54 1011.41 1011.39 1011.49 1011.73 1012.09 1012.55 1013.10 1013.69 1014.30 1014.90 1015.46 1015.96 1016.40 1016.77 1017.07 1017.31 1017.49 1017.62 1017.70 1017.74 1017.73 1017.68 1017.58 1017.44 1017.27 1017.06 1016.83 1016.58 1016.33
1010.29 1010.47 1010.79 1011.21 1011.66 1012.07 1012.40 1012.62 1012.69 1012.65 1012.49 1012.25 1011.98 1011.73 1011.53 1011.42 1011.42 1011.56 1011.82 1012.19 1012.66 1013.19 1013.75 1014.32 1014.86 1015.37 1015.83 1016.23 1016.58 1016.88 1017.13 1017.33 1017.49 1017.61 1017.68 1017.70 1017.67 1017.58 1017.43 1017.24 1017.01 1016.75 1016.47 1016.19
1010.31 1010.62 1011.06 1011.56 1012.05 1012.46 1012.77 1012.93 1012.95 1012.84 1012.63 1012.35 1012.05 1011.79 1011.59 1011.50 1011.53 1011.69 1011.96 1012.34 1012.80 1013.30 1013.82 1014.33 1014.81 1015.26 1015.67 1016.03 1016.35 1016.63 1016.89 1017.11 1017.30 1017.45 1017.55 1017.60 1017.59 1017.52 1017.38 1017.19 1016.95 1016.67 1016.39 1016.10
1010.41 1010.85 1011.38 1011.93 1012.44 1012.85 1013.12 1013.23 1013.20 1013.03 1012.77 1012.46 1012.15 1011.89 1011.71 1011.64 1011.69 1011.87 1012.15 1012.52 1012.95 1013.41 1013.88 1014.33 1014.75 1015.13 1015.48 1015.80 1016.09 1016.35 1016.61 1016.84 1017.04 1017.22 1017.35 1017.42 1017.43 1017.38 1017.26 1017.07 1016.84 1016.58 1016.29 1016.01
1010.57 1011.11 1011.69 1012.27 1012.77 1013.15 1013.37 1013.44 1013.35 1013.15 1012.87 1012.55 1012.24 1011.99 1011.84 1011.79 1011.86 1012.05 1012.33 1012.69 1013.09 1013.51 1013.92 1014.31 1014.67 1015.00 1015.29 1015.56 1015.82 1016.07 1016.31 1016.54 1016.75 1016.94 1017.08 1017.17 1017.20 1017.16 1017.06 1016.90 1016.68 1016.44 1016.17 1015.91
1010.77 1011.34 1011.94 1012.50 1012.96 1013.29 1013.46 1013.48 1013.36 1013.13 1012.84 1012.53 1012.25 1012.04 1011.91 1011.90 1012.00 1012.20 1012.48 1012.82 1013.19 1013.57 1013.94 1014.28 1014.59 1014.86 1015.12 1015.36 1015.59 1015.82 1016.04 1016.27 1016.47 1016.66 1016.80 1016.90 1016.93 1016.91 1016.82 1016.67 1016.48 1016.26 1016.03 1015.79
1010.94 1011.51 1012.07 1012.57 1012.97 1013.23 1013.34 1013.31 1013.17 1012.94 1012.66 1012.38 1012.14 1011.97 1011.89 1011.92 1012.04 1012.26 1012.55 1012.88 1013.23 1013.58 1013.91 1014.22 1014.50 1014.75 1014.98 1015.20 1015.41 1015.63 1015.84 1016.05 1016.25 1016.42 1016.55 1016.64 1016.67 1016.65 1016.57 1016.44 1016.27 1016.07 1015.86 1015.64
1011.05 1011.55 1012.03 1012.44 1012.75 1012.93 1012.98 1012.92 1012.76 1012.54 1012.29 1012.06 1011.87 1011.76 1011.74 1011.81 1011.97 1012.21 1012.51 1012.84 1013.18 1013.52 1013.84 1014.13 1014.40 1014.64 1014.87 1015.09 1015.30 1015.51 1015.71 1015.91 1016.09 1016.24 1016.36 1016.43 1016.45 1016.42 1016.33 1016.21 1016.06 1015.88 1015.69 1015.48
1011.04 1011.43 1011.80 1012.10 1012.30 1012.40 1012.40 1012.31 1012.15 1011.96 1011.76 1011.58 1011.46 1011.42 1011.46 1011.58 1011.78 1012.04 1012.35 1012.69 1013.03 1013.37 1013.69 1013.99 1014.26 1014.52 1014.76 1014.99 1015.22 1015.43 1015.64 1015.83 1015.99 1016.12 1016.22 1016.26 1016.26 1016.22 1016.13 1016.01 1015.86 1015.69 1015.51 1015.32
1010.83 1011.10 1011.35 1011.53 1011.64 1011.66 1011.62 1011.51 1011.37 1011.22 1011.08 1010.98 1010.93 1010.96 1011.06 1011.23 1011.47 1011.75 1012.08 1012.42 1012.77 1013.12 1013.45 1013.77 1014.07 1014.36 1014.63 1014.89 1015.14 1015.37 1015.58 1015.77 1015.92 1016.03 1016.10 1016.12 1016.10 1016.04 1015.94 1015.81 1015.66 1015.50 1015.33 1015.13
1010.38 1010.53 1010.66 1010.74 1010.77 1010.74 1010.67 1010.58 1010.47 1010.37 1010.30 1010.28 1010.31 1010.41 1010.57 1010.79 1011.06 1011.37 1011.71 1012.06 1012.43 1012.79 1013.14 1013.49 1013.82 1014.15 1014.45 1014.75 1015.03 1015.28 1015.50 1015.69 1015.83 1015.92 1015.97 1015.96 1015.91 1015.83 1015.71 1015.58 1015.43 1015.26 1015.09 1014.90
1009.66 1009.71 1009.74 1009.74 1009.71 1009.66 1009.60 1009.53 1009.48 1009.45 1009.47 1009.53 1009.64 1009.81 1010.02 1010.29 1010.59 1010.92 1011.27 1011.64 1012.01 1012.39 1012.77 1013.14 1013.51 1013.87 1014.22 1014.55 1014.86 1015.13 1015.36 1015.54 1015.67 1015.75 1015.77 1015.73 1015.66 1015.55 1015.41 1015.26 1015.10 1014.94 1014.76 1014.57
1008.68 1008.65 1008.61 1008.56 1008.51 1008.46 1008.43 1008.41 1008.43 1008.49 1008.59 1008.74 1008.93 1009.17 1009.44 1009.75 1010.08 1010.43 1010.80 1011.18 1011.57 1011.97 1012.37 1012.77 1013.17 1013.57 1013.95 1014.31 1014.64 1014.92 1015.15 1015.33 1015.44 1015.49 1015.48 1015.41 1015.30 1015.16 1015.00 1014.83 1014.66 1014.48 1014.31 1014.11
Thickness
5528 5534 5535 5533 5533 5534 5529 5528 5524 5533 5536 5540 5540 5539 5537 5535 5532 5528 5523 5519 5514 5509 5506 5503 5500 5497 5495 5493 5492 5491 5490 5490 5489 5488 5489 5490 5491 5492 5494 5496 5497 5498 5499 5500
5526 5538 5539 5537 5540 5540 5539 5538 5538 5539 5540 5546 5545 5542 5539 5535 5532 5528 5524 5520 5515 5510 5506 5501 5497 5495 5492 5490 5488 5487 5486 5485 5485 5484 5484 5485 5485 5486 5487 5488 5489 5489 5490 5490
5526 5543 5541 5537 5550 5548 5547 5549 5546 5541 5545 5548 5545 5543 5539 5536 5533 5529 5525 5520 5515 5509 5504 5499 5495 5493 5489 5487 5486 5484 5482 5482 5481 5480 5480 5480 5480 5481 5480 5480 5480 5480 5481 5481
5524 5530 5523 5554 5562 5560 5555 5555 5554 5552 5552 5550 5548 5545 5542 5539 5534 5530 5526 5520 5514 5508 5503 5498 5494 5490 5487 5485 5482 5480 5478 5477 5476 5475 5475 5474 5474 5473 5473 5472 5471 5471 5471 5471
5522 5526 5540 5559 5559 5557 5553 5553 5559 5556 5554 5551 5548 5543 5539 5540 5536 5530 5524 5519 5512 5507 5502 5496 5492 5488 5484 5481 5478 5475 5473 5471 5470 5469 5469 5468 5467 5466 5465 5464 5463 5462 5461 5461
5522 5525 5535 5560 5559 5559 5554 5547 5561 5559 5555 5550 5545 5533 5536 5538 5534 5528 5523 5517 5511 5505 5500 5493 5488 5485 5481 5477 5473 5470 5468 5466 5465 5464 5462 5461 5459 5458 5457 5456 5455 5454 5453 5451
5514 5521 5542 5559 5556 5553 5542 5551 5558 5557 5553 5548 5541 5537 5536 5534 5530 5525 5519 5514 5509 5503 5496 5491 5486 5482 5477 5472 5468 5466 5464 5462 5460 5458 5456 5454 5452 5451 5449 5448 5446 5445 5443 5441
5523 5522 5537 5554 5550 5547 5551 5555 5556 5553 5550 5546 5542 5538 5535 5531 5526 5521 5516 5511 5506 5499 5493 5488 5483 5478 5473 5468 5465 5462 5460 5457 5454 5452 5450 5448 5445 5443 5441 5439 5436 5434 5432 5430
5540 5546 5557 5555 5554 5555 5554 5552 5551 5547 5546 5542 5538 5534 5531 5527 5523 5518 5513 5507 5502 5496 5490 5484 5479 5475 5469 5465 5461 5457 5454 5450 5447 5445 5442 5440 5437 5434 5431 5429 5425 5423 5420 5417
5538 5551 5557 5556 5555 5554 5551 5548 5547 5544 5541 5538 5533 5530 5527 5523 5519 5515 5510 5504 5499 5492 5486 5480 5475 5470 5465 5460 5456 5451 5447 5443 5439 5436 5433 5431 5428 5425 5420 5417 5413 5410 5406 5403
5532 5544 5549 5553 5552 5551 5548 5545 5542 5539 5536 5533 5529 5526 5522 5519 5515 5511 5507 5501 5495 5489 5483 5477 5471 5465 5460 5455 5449 5444 5440 5436 5432 5428 5424 5421 5417 5413 5410 5405 5401 5397 5393 5390
5535 5546 5544 5547 5547 5545 5542 5539 5535 5531 5528 5526 5523 5520 5517 5514 5510 5506 5501 5496 5490 5484 5478 5472 5466 5460 5454 5448 5443 5437 5432 5428 5423 5418 5414 5411 5406 5403 5399 5395 5392 5388 5383 5379
5543 5543 5540 5541 5540 5538 5535 5532 5529 5525 5522 5518 5517 5514 5512 5508 5504 5500 5496 5490 5485 5479 5473 5466 5460 5453 5447 5442 5435 5429 5424 5419 5413 5409 5404 5400 5395 5391 5387 5384 5380 5376 5372 5368
5538 5535 5533 5533 5531 5529 5527 5524 5521 5518 5516 5513 5510 5508 5504 5501 5497 5493 5488 5484 5479 5472 5466 5459 5453 5446 5440 5434 5427 5421 5415 5410 5405 5399 5394 5389 5384 5379 5375 5371 5367 5362 5359 5355
5531 5528 5527 5527 5524 5521 5518 5514 5511 5508 5507 5505 5502 5499 5495 5492 5488 5484 5480 5475 5470 5464 5458 5451 5445 5438 5432 5425 5418 5412 5406 5400 5394 5388 5383 5378 5373 5368 5363 5359 5354 5350 5346 5342
5523 5521 5519 5517 5514 5511 5507 5505 5501 5500 5498 5496 5493 5490 5487 5483 5479 5475 5470 5465 5460 5454 5448 5442 5436 5430 5423 5416 5409 5402 5396 5391 5384 5378 5372 5367 5361 5356 5351 5346 5342 5337 5332 5328
5509 5507 5505 5504 5504 5502 5499 5497 5494 5492 5489 5486 5484 5481 5477 5472 5467 5463 5459 5455 5451 5445 5440 5433 5427 5420 5413 5406 5399 5392 5385 5379 5375 5368 5362 5356 5350 5344 5339 5334 5329 5324 5319 5315
5507 5504 5501 5499 5496 5494 5492 5489 5486 5484 5480 5478 5474 5470 5466 5462 5458 5453 5449 5444 5439 5434 5430 5424 5417 5410 5403 5396 5389 5382 5375 5369 5363 5357 5351 5345 5339 5333 5328 5322 5317 5312 5307 5303
5496 5494 5491 5489 5487 5484 5482 5479 5477 5475 5472 5468 5464 5460 5457 5453 5449 5444 5439 5433 5428 5423 5419 5414 5408 5400 5393 5386 5379 5372 5365 5359 5353 5346 5340 5335 5328 5322 5316 5310 5305 5300 5295 5290
5483 5481 5479 5476 5474 5472 5470 5469 5467 5464 5461 5458 5454 5450 5446 5442 5438 5433 5428 5423 5419 5415 5410 5403 5396 5389 5382 5375 5369 5362 5355 5349 5342 5336 5329 5323 5316 5310 5305 5300 5294 5289 5284 5278
5470 5468 5465 5462 5461 5460 5459 5458 5455 5453 5450 5447 5444 5440 5436 5431 5427 5422 5417 5412 5408 5404 5399 5393 5385 5378 5371 5365 5358 5351 5344 5338 5332 5325 5318 5312 5305 5299 5294 5289 5283 5278 5273 5268
5458 5456 5454 5452 5450 5449 5448 5446 5444 5442 5439 5436 5433 5429 5424 5420 5415 5411 5407 5403 5399 5394 5387 5381 5374 5368 5361 5354 5347 5340 5334 5328 5321 5314 5307 5301 5295 5289 5284 5279 5273 5269 5264 5259
5448 5447 5445 5443 5441 5439 5437 5435 5433 5431 5429 5426 5423 5419 5414 5410 5406 5401 5397 5392 5388 5383 5377 5370 5364 5359 5352 5343 5336 5330 5323 5317 5311 5304 5298 5292 5286 5281 5276 5270 5265 5260 5255 5251
5438 5436 5435 5433 5430 5427 5425 5425 5423 5421 5418 5415 5412 5409 5404 5399 5395 5392 5389 5384 5379 5373 5366 5360 5355 5349 5342 5333 5326 5320 5313 5307 5301 5295 5289 5284 5278 5273 5268 5263 5258 5253 5248 5244
5428 5425 5423 5420 5419 5419 5418 5415 5411 5409 5406 5404 5401 5398 5395 5391 5386 5382 5377 5372 5368 5362 5355 5350 5345 5338 5331 5323 5317 5311 5305 5299 5293 5288 5282 5276 5271 5266 5261 5256 5251 5246 5242 5238
5418 5417 5416 5415 5414 5413 5410 5406 5404 5401 5398 5395 5392 5388 5384 5381 5376 5371 5366 5361 5357 5352 5345 5339 5333 5328 5320 5314 5308 5303 5297 5292 5287 5281 5275 5270 5265 5260 5255 5250 5245 5241 5237 5233
5409 5408 5407 5406 5406 5404 5402 5400 5397 5395 5392 5389 5385 5381 5376 5371 5367 5362 5356 5351 5346 5340 5334 5329 5323 5317 5311 5306 5300 5295 5290 5285 5280 5275 5270 5265 5259 5255 5250 5245 5240 5236 5232 5229